Location: Unspecified
(0.0000°N, 0.0000°E)
Time: 21:39:59
(UTC+00:00)

Vanguard 2 - All Passes

Search period start: 25 March 2017 00:00
Search period end: 04 April 2017 00:00
Orbit: 553 x 2940 km, 32.9° (Epoch: 24 March)

Date Brightness Start Highest point End Pass type
(mag) Time Alt. Az. Time Alt. Az. Time Alt. Az.
25 Mar - 00:15:25 10° W 00:21:38 27° NW 00:25:59 10° NNE night (unlit)
25 Mar - 08:58:40 10° NNW 09:05:37 35° NE 09:16:29 10° ESE daylight
25 Mar - 11:05:52 10° WNW 11:15:47 74° SW 11:31:52 10° SE daylight
25 Mar - 13:17:34 10° W 13:29:18 33° SSW 13:44:14 10° SSE daylight
25 Mar - 15:36:03 10° SW 15:46:12 18° S 15:56:27 10° SSE daylight
25 Mar - 17:55:13 10° SSW 18:04:35 17° S 18:12:35 10° SE daylight
25 Mar - 20:08:05 10° SSW 20:19:51 30° SSE 20:27:49 10° E visible
25 Mar - 22:20:14 10° SW 22:31:18 85° SE 22:37:39 10° ENE visible
26 Mar - 00:35:35 10° WNW 00:39:39 16° NW 00:42:55 10° N night (unlit)
26 Mar - 09:16:17 10° NW 09:23:42 51° NE 09:36:01 10° ESE daylight
26 Mar - 11:24:26 10° WNW 11:34:28 57° SSW 11:50:12 10° SE daylight
26 Mar - 13:37:35 10° WSW 13:48:46 26° SSW 14:02:20 10° SSE daylight
26 Mar - 15:57:03 10° SW 16:06:32 16° S 16:15:48 10° SSE daylight
26 Mar - 18:13:46 10° SSW 18:24:31 20° SSE 18:33:16 10° SE visible
26 Mar - 20:26:04 10° SW 20:38:55 40° SSE 20:47:04 10° E visible
26 Mar - 22:38:55 10° WSW 22:49:31 65° NW 22:55:43 10° NE visible
27 Mar - 07:29:41 10° N 07:33:01 14° NE 07:37:05 10° ENE daylight
27 Mar - 09:34:08 10° NW 09:41:50 72° NE 09:55:05 10° ESE daylight
27 Mar - 11:43:19 10° W 11:53:20 43° SSW 12:08:21 10° SE daylight
27 Mar - 13:58:04 10° WSW 14:08:31 21° SSW 14:20:36 10° SSE daylight
27 Mar - 16:17:24 10° SSW 16:26:53 16° S 16:35:55 10° SE daylight
27 Mar - 18:31:59 10° SSW 18:44:13 24° SSE 18:53:37 10° ESE visible
27 Mar - 20:44:12 10° SW 20:57:44 54° SSE 21:05:54 10° ENE visible
27 Mar - 22:58:02 10° WSW 23:07:35 43° NW 23:13:30 10° NNE visible
28 Mar - 07:46:14 10° N 07:51:08 23° NE 07:58:02 10° E daylight
28 Mar - 09:52:15 10° WNW 10:00:08 83° SW 10:13:47 10° SE daylight
28 Mar - 12:02:36 10° W 12:12:27 33° SSW 12:26:25 10° SE daylight
28 Mar - 14:18:53 10° SW 14:28:31 18° S 14:39:13 10° SSE daylight
28 Mar - 16:36:55 10° SSW 16:47:11 17° S 16:56:38 10° SE daylight
28 Mar - 18:50:02 10° SSW 19:03:40 31° SSE 19:13:31 10° E visible
28 Mar - 21:02:30 10° SW 21:16:22 74° SE 21:24:25 10° ENE visible
28 Mar - 23:17:40 10° W 23:25:36 28° NW 23:30:57 10° NNE visible
29 Mar - 08:03:31 10° NNW 08:09:09 35° NE 08:17:56 10° ESE daylight
29 Mar - 10:10:40 10° WNW 10:18:40 61° SSW 10:32:12 10° SE daylight
29 Mar - 12:22:19 10° WSW 12:31:48 26° SSW 12:44:28 10° SSE daylight
29 Mar - 14:39:43 10° SW 14:48:45 16° S 14:58:26 10° SSE daylight
29 Mar - 16:55:43 10° SSW 17:07:17 20° SSE 17:17:31 10° SE daylight
29 Mar - 19:08:06 10° SW 19:22:52 39° SSE 19:32:58 10° E visible
29 Mar - 21:21:06 10° WSW 21:34:45 82° NW 21:42:38 10° NE visible
29 Mar - 23:38:04 10° W 23:43:40 18° NW 23:47:55 10° N night (unlit)
30 Mar - 08:21:10 10° NW 08:27:11 55° NE 08:37:14 10° ESE daylight
30 Mar - 10:29:22 10° W 10:37:24 45° SSW 10:50:23 10° SE daylight
30 Mar - 12:42:30 10° WSW 12:51:23 21° SSW 13:02:35 10° SSE daylight
30 Mar - 15:00:05 10° SSW 15:09:06 16° S 15:18:28 10° SE daylight
30 Mar - 17:14:06 10° SSW 17:27:09 24° SSE 17:38:10 10° ESE daylight
30 Mar - 19:26:12 10° SW 19:41:50 51° SSE 19:52:02 10° ENE visible
30 Mar - 21:40:01 10° WSW 21:52:57 59° NW 22:00:37 10° NE visible
31 Mar - 00:00:43 10° NW 00:01:54 10° NW 00:03:00 10° NNW night (unlit)
31 Mar - 06:34:51 10° NNE 06:37:04 12° NE 06:39:37 10° ENE daylight
31 Mar - 08:39:07 10° NW 08:45:19 83° NE 08:56:04 10° ESE daylight
31 Mar - 10:48:26 10° W 10:56:22 33° SSW 11:08:25 10° SE daylight
31 Mar - 13:03:04 10° SW 13:11:13 17° S 13:20:58 10° SSE daylight
31 Mar - 15:19:42 10° SSW 15:29:26 17° S 15:39:16 10° SE daylight
31 Mar - 17:32:15 10° SSW 17:46:43 30° SSE 17:58:23 10° ESE daylight
31 Mar - 19:44:28 10° SW 20:00:36 67° SSE 20:10:44 10° ENE visible
31 Mar - 21:59:20 10° WSW 22:11:02 41° NW 22:18:21 10° NNE visible
01 Apr - 06:51:12 10° N 06:55:08 22° NE 07:00:26 10° E daylight
01 Apr - 08:57:21 10° WNW 09:03:40 68° SSW 09:14:34 10° SE daylight
01 Apr - 11:07:57 10° WSW 11:15:33 25° SSW 11:26:20 10° SSE daylight
01 Apr - 13:23:47 10° SW 13:31:17 15° S 13:39:51 10° SSE daylight
01 Apr - 15:38:37 10° SSW 15:49:37 19° SSE 16:00:27 10° SE daylight
01 Apr - 17:50:20 10° SW 18:06:02 38° SSE 18:18:09 10° E daylight
01 Apr - 20:02:55 10° SW 20:19:09 86° SE 20:29:07 10° ENE visible
01 Apr - 22:19:13 10° W 22:29:08 29° NW 22:35:47 10° NNE visible
02 Apr - 07:08:30 10° NNW 07:13:07 37° NE 07:20:04 10° ESE daylight
02 Apr - 09:15:54 10° W 09:22:16 46° SSW 09:32:46 10° SE daylight
02 Apr - 11:27:56 10° WSW 11:34:57 20° SSW 11:44:12 10° SSE daylight
02 Apr - 13:44:12 10° SSW 13:51:30 14° S 13:59:37 10° SSE daylight
02 Apr - 15:57:02 10° SSW 16:09:34 23° SSE 16:21:31 10° ESE daylight
02 Apr - 18:08:24 10° SW 18:25:08 48° SSE 18:37:28 10° E visible
02 Apr - 20:21:39 10° WSW 20:37:31 73° NW 20:47:16 10° NE visible
02 Apr - 22:39:51 10° W 22:47:20 19° NW 22:52:52 10° N visible
03 Apr - 07:26:14 10° NW 07:31:10 63° NE 07:39:05 10° ESE daylight
03 Apr - 09:34:49 10° W 09:41:04 32° SSW 09:50:44 10° SE daylight
03 Apr - 11:48:26 10° SW 11:54:35 16° S 12:02:09 10° SSE daylight
03 Apr - 14:03:51 10° SSW 14:11:46 15° S 14:20:24 10° SE daylight
03 Apr - 16:15:11 10° SSW 16:29:15 28° SSE 16:42:11 10° ESE daylight
03 Apr - 18:26:34 10° SW 18:44:00 61° SSE 18:56:23 10° ENE visible
03 Apr - 20:40:44 10° WSW 20:55:45 55° NW 21:05:12 10° NE visible
03 Apr - 23:01:48 10° WNW 23:05:43 12° NW 23:09:03 10° NNW visible
